Location: ????????
(42.0488°N, 44.0407°E)
Time: 23:17:05
(UTC+00:00)

Cosmos 2278 Rocket - Pass Details

Date: 07 June 2020
Orbit: 840 x 847 km, 71.0° (Epoch: 07 July)

Event Time Altitude Azimuth Distance (km) Brightness Sun altitude
Rises 00:40:10 0° 342° (NNW) 3,417 5.7 -8.0°
Reaches altitude 10° 00:42:49 10° 351° (N) 2,478 5.1 -7.7°
Maximum altitude 00:48:03 36° 57° (ENE) 1,306 4.1 -6.9°
Drops below altitude 10° 00:53:15 10° 124° (SE) 2,462 4.9 -6.2°
Sets 00:55:52 0° 133° (SE) 3,392 5.5 -5.8°
